This is the latest recevied weather packets stored in our database for station/object N3WPH. If no packets are shown the sender has not sent any weather packets the latest 10 day(s).
| Time | Temp. | Humidity | Pressure | Rain* | Wind** | Luminosity | Snow |
|---|---|---|---|---|---|---|---|
| 1777984566 | 20.56° C | 57% | 1009.8 hPa | 0 mm | - | 161 W/m² | - |
| 1777984263 | 20.56° C | 56% | 1009.6 hPa | 0 mm | - | 314 W/m² | - |
| 1777983959 | 20° C | 56% | 1009.8 hPa | 0 mm | - | 270 W/m² | - |
| 1777983656 | 20° C | 59% | 1009.8 hPa | 0 mm | - | 275 W/m² | - |
| 1777983353 | 20° C | 57% | 1009.9 hPa | 0 mm | - | 248 W/m² | - |
| 1777983050 | 19.44° C | 58% | 1009.8 hPa | 0 mm | - | 93 W/m² | - |
| 1777982746 | 19.44° C | 57% | 1009.7 hPa | 0 mm | - | 92 W/m² | - |
| 1777982442 | 19.44° C | 57% | 1009.5 hPa | 0 mm | - | 194 W/m² | - |
| 1777982136 | 18.89° C | 59% | 1009.4 hPa | 0 mm | - | 202 W/m² | - |
| 1777981834 | 18.33° C | 61% | 1009.4 hPa | 0 mm | - | 198 W/m² | - |
| 1777981531 | 17.78° C | 62% | 1009.6 hPa | 0 mm | - | 151 W/m² | - |
| 1777981227 | 17.78° C | 64% | 1009.7 hPa | 0 mm | - | 95 W/m² | - |
| 1777980924 | 17.78° C | 64% | 1009.6 hPa | 0 mm | - | 83 W/m² | - |
| 1777980620 | 17.22° C | 64% | 1009.5 hPa | 0 mm | - | 72 W/m² | - |
| 1777980316 | 17.22° C | 65% | 1009.6 hPa | 0 mm | - | 50 W/m² | - |
| 1777980014 | 17.22° C | 64% | 1009.4 hPa | 0 mm | - | 52 W/m² | - |
| 1777979708 | 17.22° C | 64% | 1009.3 hPa | 0 mm | - | 53 W/m² | - |
| 1777979405 | 16.67° C | 65% | 1009.4 hPa | 0 mm | - | 47 W/m² | - |
| 1777979101 | 16.11° C | 69% | 1009.4 hPa | 0 mm | - | 44 W/m² | - |
| 1777978798 | 16.11° C | 70% | 1009.4 hPa | 0 mm | - | 41 W/m² | - |
| 1777978495 | 16.11° C | 69% | 1009.4 hPa | 0 mm | - | 40 W/m² | - |
| 1777978191 | 16.11° C | 69% | 1009.2 hPa | 0 mm | - | 36 W/m² | - |
| 1777977888 | 16.11° C | 69% | 1009 hPa | 0 mm | - | 37 W/m² | - |
| 1777977584 | 16.11° C | 68% | 1009.1 hPa | 0 mm | - | 32 W/m² | - |
| 1777977282 | 15.56° C | 68% | 1009.2 hPa | 0 mm | - | 25 W/m² | - |
* Rain latest hour (hover to see other rain measurements)
** Current wind speed in m/s (hover to see current wind gust speed)